Belen, NM

4:07 PM MDT on April 24, 2018 (GMT -0600)
Belen

Weather History for KE80 - October, 2011

Change the Weather History Date:

Friday, October 21, 2011

  Actual Average (KABQ) Record (KABQ)
Temperature  
Mean Temperature 58 °F -  
Max Temperature 76 °F 66 °F 81 °F (1954)
Min Temperature 41 °F 42 °F 20 °F (1910)
Degree Days  
Heating Degree Days 6    
Growing Degree Days 8 (Base 50)    
Moisture  
Dew Point 22 °F    
Average Humidity 27    
Maximum Humidity 51    
Minimum Humidity 11    
Precipitation  
Precipitation 0.00 in - - ()
Sea Level Pressure  
Sea Level Pressure 30.23 in    
Wind  
Wind Speed 3 mph (NNW)    
Max Wind Speed 12 mph    
Max Gust Speed -    
Visibility 10 miles    
Events      
Averages and records for this station are not official NWS values.
T = Trace of Precipitation, MM = Missing Value Source: NWS Daily Summary

Daily Weather History Graph

Daily Weather History Graph

Search for Another Location

Airport or City:

Astronomy

Oct. 21, 2011 Rise Set
Actual Time 7:17 AM MDT 6:25 PM MDT
Civil Twilight 6:52 AM MDT 6:51 PM MDT
Nautical Twilight 6:22 AM MDT 7:20 PM MDT
Astronomical Twilight 5:53 AM MDT 7:49 PM MDT
Moon 1:25 AM MDT (10/21) 2:58 PM MDT (10/21)
Length of Visible Light 11h 58m
Length of Day
11h 07m
Waning Crescent, 33% of the Moon is Illuminated
Oct 21
Waning Crescent
Oct 26
New
Nov 2
First Quarter
Nov 10
Full
Nov 18
Last Quarter

Hourly Weather History & Observations

Time (MDT) Temp. Windchill Dew Point Humidity Pressure Visibility Wind Dir Wind Speed Gust Speed Precip Events Conditions
12:35 AM 51.6 °F - 20.7 °F 30% 30.21 in 10.0 mi North 4.6 mph - N/A   Clear
12:55 AM 52.0 °F - 20.5 °F 29% 30.21 in 10.0 mi NW 4.6 mph - N/A   Clear
1:15 AM 51.4 °F - 20.7 °F 30% 30.22 in 10.0 mi Calm Calm - N/A   Clear
1:35 AM 52.2 °F - 19.9 °F 28% 30.22 in 10.0 mi WNW 4.6 mph - N/A   Clear
1:55 AM 52.0 °F - 20.3 °F 29% 30.22 in 10.0 mi WNW 4.6 mph - N/A   Clear
2:15 AM 50.7 °F - 20.7 °F 31% 30.22 in 10.0 mi Calm Calm - N/A   Clear
2:35 AM 49.1 °F - 21.0 °F 33% 30.22 in 10.0 mi Calm Calm - N/A   Clear
2:55 AM 47.8 °F - 21.6 °F 35% 30.23 in 10.0 mi Calm Calm - N/A   Clear
3:15 AM 46.8 °F - 21.9 °F 37% 30.23 in 10.0 mi Calm Calm - N/A   Clear
3:35 AM 46.6 °F - 22.1 °F 38% 30.22 in 10.0 mi Calm Calm - N/A   Clear
3:55 AM 44.2 °F - 24.3 °F 45% 30.22 in 10.0 mi Calm Calm - N/A   Clear
4:35 AM 42.6 °F - 24.4 °F 49% 30.22 in 10.0 mi Calm Calm - N/A   Clear
4:55 AM 42.8 °F - 23.9 °F 47% 30.22 in 10.0 mi Calm Calm - N/A   Clear
5:15 AM 44.4 °F - 23.2 °F 43% 30.23 in 10.0 mi Calm Calm - N/A   Clear
5:35 AM 41.5 °F - 24.4 °F 51% 30.23 in 10.0 mi Calm Calm - N/A   Clear
6:15 AM 42.8 °F - 23.4 °F 46% 30.25 in 10.0 mi Calm Calm - N/A   Clear
6:35 AM 41.5 °F 39.6 °F 23.9 °F 50% 30.25 in 10.0 mi North 3.5 mph - N/A   Clear
6:55 AM 43.3 °F - 23.2 °F 45% 30.25 in 10.0 mi Calm Calm - N/A   Clear
7:15 AM 41.2 °F 38.2 °F 23.9 °F 50% 30.26 in 10.0 mi NNE 4.6 mph - N/A   Clear
7:35 AM 41.0 °F 38.0 °F 23.7 °F 50% 30.26 in 10.0 mi NNE 4.6 mph - N/A   Clear
7:55 AM 42.1 °F 39.2 °F 24.1 °F 49% 30.27 in 10.0 mi North 4.6 mph - N/A   Clear
8:15 AM 44.8 °F 43.3 °F 25.7 °F 47% 30.28 in 10.0 mi NW 3.5 mph - N/A   Clear
8:35 AM 49.1 °F - 25.2 °F 39% 30.29 in 10.0 mi NNW 3.5 mph - N/A   Clear
8:55 AM 52.9 °F - 24.3 °F 33% 30.29 in 10.0 mi Calm Calm - N/A   Clear
9:35 AM 57.6 °F - 23.9 °F 27% 30.30 in 10.0 mi Calm Calm - N/A   Clear
9:55 AM 58.8 °F - 24.6 °F 27% 30.30 in 10.0 mi Calm Calm - N/A   Clear
10:15 AM 60.3 °F - 24.6 °F 26% 30.30 in 10.0 mi Calm Calm - N/A   Clear
10:35 AM 61.5 °F - 24.8 °F 25% 30.30 in 10.0 mi East 3.5 mph - N/A   Clear
10:55 AM 62.2 °F - 24.3 °F 23% 30.29 in 10.0 mi Calm Calm - N/A   Clear
11:15 AM 63.1 °F - 24.3 °F 23% 30.29 in 10.0 mi ENE 6.9 mph - N/A   Clear
11:35 AM 64.9 °F - 24.1 °F 21% 30.29 in 10.0 mi ENE 4.6 mph - N/A   Clear
11:55 AM 66.4 °F - 23.9 °F 20% 30.29 in 10.0 mi East 4.6 mph - N/A   Clear
12:15 PM 67.5 °F - 24.1 °F 19% 30.28 in 10.0 mi East 3.5 mph - N/A   Clear
12:35 PM 68.7 °F - 24.3 °F 19% 30.27 in 10.0 mi East 4.6 mph - N/A   Clear
12:55 PM 69.6 °F - 24.3 °F 18% 30.26 in 10.0 mi ENE 3.5 mph - N/A   Clear
1:15 PM 70.5 °F - 24.4 °F 18% 30.25 in 10.0 mi Calm Calm - N/A   Clear
1:35 PM 71.4 °F - 23.5 °F 17% 30.23 in 10.0 mi Calm Calm - N/A   Clear
1:55 PM 72.7 °F - 23.0 °F 16% 30.22 in 10.0 mi NE 3.5 mph - N/A   Clear
2:15 PM 74.1 °F - 23.2 °F 15% 30.21 in 10.0 mi SE 4.6 mph - N/A   Clear
2:35 PM 74.5 °F - 22.5 °F 14% 30.20 in 10.0 mi Calm Calm - N/A   Clear
2:55 PM 74.8 °F - 21.9 °F 14% 30.20 in 10.0 mi Calm Calm - N/A   Clear
3:15 PM 75.2 °F - 21.2 °F 13% 30.19 in 10.0 mi Calm Calm - N/A   Clear
3:35 PM 75.2 °F - 20.7 °F 13% 30.18 in 10.0 mi Calm Calm - N/A   Clear
3:55 PM 75.9 °F - 20.1 °F 12% 30.18 in 10.0 mi Calm Calm - N/A   Clear
4:35 PM 76.3 °F - 19.8 °F 12% 30.16 in 10.0 mi WSW 6.9 mph - N/A   Clear
5:15 PM 76.8 °F - 19.0 °F 11% 30.16 in 10.0 mi WNW 6.9 mph - N/A   Clear
5:35 PM 75.7 °F - 19.8 °F 12% 30.17 in 10.0 mi North 3.5 mph - N/A   Clear
5:55 PM 73.2 °F - 22.1 °F 15% 30.16 in 10.0 mi East 5.8 mph - N/A   Clear
6:15 PM 71.6 °F - 21.4 °F 15% 30.17 in 10.0 mi Calm Calm - N/A   Clear
6:35 PM 70.7 °F - 20.8 °F 15% 30.17 in 7.0 mi Calm Calm - N/A   Clear
7:15 PM 67.3 °F - 21.2 °F 17% 30.18 in 10.0 mi WSW 3.5 mph - N/A   Clear
7:35 PM 63.3 °F - 21.6 °F 20% 30.19 in 10.0 mi West 6.9 mph - N/A   Clear
7:55 PM 60.1 °F - 21.7 °F 23% 30.19 in 10.0 mi WNW 9.2 mph - N/A   Clear
8:15 PM 59.5 °F - 21.6 °F 23% 30.19 in 10.0 mi NW 8.1 mph - N/A   Clear
8:55 PM 59.9 °F - 21.4 °F 23% 30.20 in 10.0 mi NW 8.1 mph - N/A   Clear
9:15 PM 58.6 °F - 21.6 °F 24% 30.21 in 10.0 mi NW 10.4 mph - N/A   Clear
9:35 PM 59.7 °F - 20.8 °F 22% 30.21 in 10.0 mi NNW 8.1 mph - N/A   Clear
9:55 PM 57.2 °F - 20.7 °F 24% 30.22 in 10.0 mi NNW 11.5 mph - N/A   Clear
10:15 PM 57.2 °F - 19.8 °F 23% 30.22 in 10.0 mi NW 8.1 mph - N/A   Clear
10:35 PM 54.9 °F - 19.9 °F 26% 30.22 in 10.0 mi NW 10.4 mph - N/A   Clear
10:55 PM 54.1 °F - 19.9 °F 26% 30.22 in 10.0 mi NW 8.1 mph - N/A   Clear
11:15 PM 51.8 °F - 20.3 °F 29% 30.22 in 10.0 mi NNW 9.2 mph - N/A   Clear
11:35 PM 52.9 °F - 19.9 °F 28% 30.22 in 10.0 mi NNW 11.5 mph - N/A   Clear
11:55 PM 55.4 °F - 19.2 °F 24% 30.22 in 10.0 mi NW 10.4 mph - N/A   Clear